Regional Weather Roundup
Issued by NWS Jackson, KY

Home | Current Version | Previous Version | Graphics & Text | Print | Product List | Glossary On
Versions: 1 2 3 4 5 6 7 8 9 10 11 12 13 14 15 16 17 18 19 20 21 22 23 24 25 26 27 28
000
ASUS43 KJKL 181410
RWRJKL

EAST KENTUCKY HOURLY WEATHER ROUNDUP
NATIONAL WEATHER SERVICE JACKSON KY
1000 AM EDT WED OCT 18 2017

NOTE: "FAIR" INDICATES FEW OR NO CLOUDS BELOW 12,000 FEET WITH
NO SIGNIFICANT WEATHER AND/OR OBSTRUCTIONS TO VISIBILITY.

* THESE REPORTS ARE NOT UNDER NWS QUALITY CONTROL AND MAY NOT
  REPORT WEATHER SUCH AS PRECIPITATION AND FOG.

KYZ079-080-083-085-087-088-110-112-115-119-120-181500
...EASTERN KENTUCKY...

CITY           SKY/WX    TMP DP  RH WIND       PRES   REMARKS
JACKSON        SUNNY     49  43  80 CALM      30.35R
LONDON         SUNNY     48  44  86 CALM      30.36R
SOMERSET*      SUNNY     46  46 100 SE5       30.38R
MONTICELLO*    SUNNY     51  46  83 VRB6      30.37R
WILLIAMSBURG*  SUNNY     46  46 100 S3        30.37R
MIDDLESBORO*   FOG       40  40 100 CALM      30.40R VSB 1/4
HARLAN APT*    CLOUDY    41  41 100 CALM      30.39R VSB 3/4
PIKE CO APT*     N/A     47  44  88 S6        30.36R
BIG SANDY APT* SUNNY     50  44  81 CALM      30.36S
MOREHEAD APT*  SUNNY     52  43  71 CALM      30.36S
$$

KYZ035-036-041-042-044-050-067-078-099-181500
...CENTRAL KENTUCKY...

CITY           SKY/WX    TMP DP  RH WIND       PRES   REMARKS
MT STERLING*   SUNNY     52  46  82 CALM      30.36S
FLEMING/MASON* SUNNY     51  44  76 CALM      30.36S
DANVILLE*      SUNNY     50  45  81 S3        30.36R
LEXINGTON      SUNNY     54  45  71 S8        30.34R
FRANKFORT      SUNNY     50  43  77 SE6       30.33R
LOUISVILLE     MOSUNNY   50  45  83 SE3       30.33R
LEBANON*       HAZE      55  43  62 S5        30.34R VSB 1
GLASGOW*       SUNNY     54  47  76 S3        30.34R
BOWLING GREEN  SUNNY     50  47  89 CALM      30.34R
$$

KYZ091>093-OHZ055-061-077-WVZ005-015-034-035-042-181500
...SOUTHERN OHIO/WEST VIRGINIA...

CITY           SKY/WX    TMP DP  RH WIND       PRES   REMARKS
COVINGTON      SUNNY     54  46  74 S6        30.33R
COLUMBUS       SUNNY     52  44  74 S5        30.34R
DAYTON         MOSUNNY   53  44  71 S8        30.33S
WILMINGTON     SUNNY     57  45  64 S6        30.33S
HUNTINGTON     SUNNY     47  43  86 S3        30.36R
CHARLESTON     MOSUNNY   43  42  97 CALM      30.36R
PINEVILLE*     SUNNY     46  43  88 MISG      30.42S
BECKLEY        SUNNY     52  38  58 SE7       30.37R
BLUEFIELD      SUNNY     47  38  71 VRB3      30.38R
LOGAN CO APT*    N/A     52  45  76 CALM      30.35S
$$

VAZ002-007-008-TNZ017-027-036-066-071-181500
...SOUTHWEST VIRGINIA/EAST TENNESSEE...

CITY           SKY/WX    TMP DP  RH WIND       PRES   REMARKS
WISE*          SUNNY     54  41  62 CALM      30.38R
JONESVILLE*      N/A     48  41  76 CALM      30.40S
ABINGDON*      SUNNY     53  43  68 E5        30.37S
BRISTOL        MOSUNNY   48  44  86 E3        30.38R
MORRISTOWN*    SUNNY     52  45  76 CALM      30.37R
SEVIERVILLE*   SUNNY     48  45  87 CALM      30.37S
KNOXVILLE      MOSUNNY   50  49  96 NE3       30.36R
LAFOLLETTE*    FOG       45  45 100 CALM      30.41S VSB 0
OAK RIDGE      CLOUDY    46  46 100 E5        30.39R
CROSSVILLE     CLOUDY    49  46  90 CALM      30.35R
NASHVILLE      MOSUNNY   53  48  83 S3        30.34R
$$

...KEY TO REMARKS...
VSB - VISIBILITY IN MILES
WCI - WIND CHILL INDEX
HX  - HEAT INDEX

$$




USA.gov is the U.S. government's official web portal to all federal, state and local government web resources and services.